Timeline UpdatesTrip UpdatesNews PostsPvt PostsTravel TipsAdmin PostsConv PostsFollowed PostsChat RequestsBlog PostsPNR Posts

Disclaimer
Search
 
 
Mon Jul 28, 2014 13:49:25 ISTHomeTrainsΣChainsAtlasPNRForumGalleryNewsFAQTripsMembersLoginFeedback
No Recent News for this Train
Other Trains in the News **new
Latest...
⇐ Return Journey: Train# 51673

51674/Satna Itarsi Passenger (UnReserved)

Sep 25 2013 (7:52PM)
Change Departure Station:
Change Arrival Station:
Post a Train Travel TipPost a Train Travel Tip **new
Post a Comment/Question/Picture/VideoPost a Comment/Question/Picture/Video
Pantry/Catering
???
RSA - Rake Sharing
Rake Sharing with Katni Itarsi Passenger (UnReserved)/51672; Ref: http://indiarailinfo.com/blog/post/801431
Rake/Coach Composition
Loco
ET/KTE WDM2/3A
News    PNR    Forum    Time-Table    Availability    Fare Chart    Map    Arr/Dep History    Trips    Gallery    ΣChains    X/O    Timeline    
Travel Time: 3h 0m    9 halts    Distance: 91 km    Avg Speed: 30 km/hr
Type: Passenger
Zone: WCR/West Central
Departs @ 15:10 (Avg 2h 20m late)
Platform# 2
SMTWTFS
Katni Junction/KTE 
Arrives @ 18:10 (Avg 1h 42m late)
Platform# 1
SMTWTFS
Jabalpur Junction/JBP 

9 halts. 10 intermediate Stations between Katni Junction and Jabalpur Junction

Show ALL intermediate Stations  Show Old Time-Table

#CodeStation NameX/OArrivesAvgDepartsAvgHaltPFDay#KmSpeedElevZoneAddress
1STASatna Junction (3)  -13:30+1:3531-98.385322mWCRSatna, Madhya Pradesh
2UHRUnchhera (2)  13:45+2:2613:46+2:261m--1-77.266331mWCRUnchhera, Madhya Pradesh
3MYRMaihar (3)  13:59+2:2614:00+2:291m--1-62.968353mWCRMaihar Railway Station, Madhya Pradesh
4UDRAmdara (2)  14:23+2:3214:24+2:331m--1-36.973376mWCRNational Highway 34, Madhya Pradesh
5JKEJukehi (3)X  14:40+2:3714:41+2:401m--1-17.443402mWCRJukehi, Madhya Pradesh
6KTE»Katni Junction (6)»  15:05+2:1615:10+2:205m210.031387mWCRKatni, Madhya Pradesh
7MDRRMadhavnagar Road (2)XO  15:20+5:0815:21+5:081m--15.137398mWCRMadhavnagar, Madhya Pradesh
8NWRNiwar (2)X  15:34+2:4015:35+2:461m--113.252412mWCRPipraundh, Madhya Pradesh
9SNRRSansarpur (2)X  15:44+4:5715:45+4:571m--120.917436mWCRNational Highway 7, Madhya Pradesh
10SBDSleemanabad Road (2)  16:09+2:3316:10+2:341m--127.863434mWCRSleemanabad, Madhya Pradesh
11DDCEDundi (2)X  16:19+2:4016:20+2:431m--137.339415mWCRDundi, Madhya Pradesh
12SHRSihora Road (2)X  16:43+1:5416:45+1:542m--152.3111388mWCRJabalpur, Madhya Pradesh
13GSPRGosalpur (2)X  16:51+2:3916:52+2:431m--163.453396mWCRJabalpur, Madhya Pradesh
14DOEDeori (2)XO  17:04+2:3717:05+2:381m--173.916392mWCRJabalpur, Madhya Pradesh
15ADTLAdhartal (2)X  17:38+2:3217:40+2:352m--182.716393mWCRJabalpur, Madhya Pradesh
16JBP•Jabalpur Junction (4)•X  18:10+1:4218:20+1:4410m1190.735416mWCRJabalpur, Madhya Pradesh
17MMLMadan Mahal (3)  18:26+2:5618:28+2:562m1194.288428mWCRJabalpur, Madhya Pradesh
18BRGTBheraghat (2)X  18:37+2:5318:39+2:542m--1107.379389mWCRBheraghat, Madhya Pradesh
19BHTNBhitoni (2)  18:49+2:5018:51+2:512m--1120.469377mWCRJabalpur, Madhya Pradesh
20BMRBikrampur (2)  19:01+2:5319:03+3:012m--1132.059353mWCRBikrampur Dist Narsingpur., Madhya Pradesh
21SRIDShridham (3)X  19:15+2:4119:17+2:272m31143.971373mWCRShridham, Madhya Pradesh
22KKBKarak Bel (2)X  19:30+2:4419:32+2:492m--1159.238375mWCRKarak Bel, Madhya Pradesh
23BELDBelkhera (2)X  19:39+2:4919:41+2:502m--1163.633367mWCRState Highway 22, Madhya Pradesh
24GPCGhatpindrai (2)X  19:51+2:4819:53+2:522m--1169.135366mWCRGhatpindra, Madhya Pradesh
25NUNarsinghpur (2)  20:03+2:2420:05+2:262m21174.961365mWCRNarsimhapur, Madhya Pradesh
26KYKareli (2)X  20:21+2:1620:23+2:172m21191.362361mWCRKareli, Madhya Pradesh
27KFYKarapgaon (2)  20:31+4:5220:33+4:522m--1199.5101363mWCRNational Highway 26, Madhya Pradesh
28BNEBohani (2)X  20:37+2:5620:39+2:382m--1206.360361mWCRNarsinghpur, Madhya Pradesh
29GARGadarwara (2)X  20:52+2:2320:54+2:262m21219.276352mWCRNarsinghpur, Madhya Pradesh
30SCKRSalichauka Road (2)  21:05+2:4421:07+3:012m--1233.161355mWCRGadarwara, Madhya Pradesh
31JHTJunehta (2)X  21:17+2:4621:19+2:462m--1243.343353mWCRState Highway 22, Madhya Pradesh
32BKHBankhedi (2)X  21:28+2:5221:30+3:042m--1249.776351mWCRBankheri, Madhya Pradesh
33PPIPipariya (3)O  21:45+2:2421:47+2:252m21268.665338mWCRPiparia, Madhya Pradesh
34SXFSobhapur (2)X  21:55+2:4421:57+2:442m--1277.354338mWCRState Highway 22, Madhya Pradesh
35SGPSohagpur (2)X  22:07+3:0022:09+3:022m--1286.350340mWCRSohagpur, Madhya Pradesh
36GMDGuramkhedi (2)  22:21+3:1122:22+3:121m--1296.478337mWCRGuramkhedi, Madhya Pradesh
37BGTABagratawa (2)  22:32+3:0222:33+3:251m--1309.434338mWCRBagra Tawa, Madhya Pradesh
38SQLSontalai (2)X  22:45+3:3522:46+3:441m--1316.368329mWCRItarsi, Madhya Pradesh
39GROGurra (2)  22:54+3:4622:55+4:471m--1325.332327mWCRItarsi, Madhya Pradesh
40ETItarsi Junction (7)  23:15+3:47---1335.8-329mWCRItarsi 461111, Madhya Pradesh
Scroll to Top
Scroll to Bottom